Location: Mississauga
(43.5802°N, 79.6166°W)
Time: 01:44:54
(UTC-05:00)

Cosmos 1437 Rocket - Visible Passes

Search period start: 10 February 2016 00:00
Search period end: 20 February 2016 00:00
Orbit: 513 x 564 km, 81.2° (Epoch: 09 February)

Date Brightness Start Highest point End Pass type
(mag) Time Alt. Az. Time Alt. Az. Time Alt. Az.
10 Feb 3.0 05:23:14 10° S 05:27:19 71° E 05:31:24 10° NNE visible
11 Feb 3.0 05:17:02 23° S 05:19:32 72° E 05:23:35 10° NNE visible
12 Feb 3.0 05:11:20 67° SE 05:11:43 74° E 05:15:47 10° NNE visible
13 Feb 3.5 05:04:51 50° NNE 05:04:51 50° NNE 05:07:58 10° NNE visible
14 Feb 4.3 04:58:00 30° NNE 04:58:00 30° NNE 05:00:09 10° NNE visible
15 Feb 4.9 04:50:56 21° NNE 04:50:56 21° NNE 04:52:20 10° NNE visible
16 Feb 5.3 04:43:43 15° NNE 04:43:43 15° NNE 04:44:29 10° NNE visible
17 Feb 5.6 04:36:24 12° NNE 04:36:24 12° NNE 04:36:40 10° NNE visible
